Location: Godiavel Galaoual
(15.2485°N, 12.6604°W)
Time: 13:10:00
(UTC+00:00)

LightSail 2 - Pass Details

Date: 05 June 2020
Orbit: 691 x 722 km, 24.0° (Epoch: 06 July)

Event Time Altitude Azimuth Distance (km) Brightness Sun altitude
Exits shadow 03:22:18 23° 51° (NE) 1,470 7.3 -36.7°
Drops below altitude 10° 03:24:44 10° 71° (ENE) 2,186 8.3 -36.3°
Sets 03:27:23 0° 81° (E) 3,110 9.1 -35.9°
